Tracking 19706 objects as of 16-Jun-2019
HD Live streaming from Space Station
objects crossing your sky now

FLOCK 3P 62

Track FLOCK 3P 62 now!
10-day predictions
FLOCK 3P 62 is classified as:


NORAD ID: 42036
Int'l Code: 2017-008CS
Perigee: 487.7 km
Apogee: 498.8 km
Inclination: 97.4 °
Period: 94.3 minutes
Semi major axis: 6864 km
RCS: Unknown
Launch date: February 15, 2017
Source: United States (US)
Launch site: SRIHARIKOTA (SRI)
aabbcc
Your satellite tracking list
Your tracking list is empty




NASA's NSSDC Master Catalog

Two Line Element Set (TLE):
1 42036U 17008CS  19167.11599174  .00001839  00000-0  73083-4 0  9998
2 42036  97.4071 234.7949 0008095 160.5845 199.5704 15.26565186128779
Source of the keplerian elements: AFSPC